Forest City, IA

6:59 PM CST on January 24, 2017 (GMT -0600)
Forest City Municipal

Weather History for KFXY - December, 2012

Change the Weather History Date:

Friday, December 7, 2012

  Actual Average Record
Temperature  
Mean Temperature 30 °F -  
Max Temperature 33 °F 27 °F 44 °F (2015)
Min Temperature 28 °F 13 °F -5 °F (2013)
Degree Days  
Heating Degree Days 34    
Moisture  
Dew Point 23 °F    
Average Humidity 72    
Maximum Humidity 86    
Minimum Humidity 60    
Precipitation  
Precipitation 0.00 in - - ()
Sea Level Pressure  
Sea Level Pressure 29.97 in    
Wind  
Wind Speed 8 mph (NNE)    
Max Wind Speed 14 mph    
Max Gust Speed -    
Visibility 10 miles    
Events      
Averages and records for this station are not official NWS values.
T = Trace of Precipitation, MM = Missing Value Source: NWS Daily Summary

Daily Weather History Graph

Daily Weather History Graph

Search for Another Location

Airport or City:

Trip Planner

Search our weather history database for the weather conditions in past years. The results will help you decide how hot, cold, wet, or windy it might be!

Date:

Astronomy

Dec. 07, 2012 Rise Set
Actual Time 7:33 AM CST 4:38 PM CST
Civil Twilight 7:01 AM CST 5:11 PM CST
Nautical Twilight 6:25 AM CST 5:46 PM CST
Astronomical Twilight 5:50 AM CST 6:21 PM CST
Moon 12:44 AM CST (12/7) 12:44 PM CST (12/7)
Length of Visible Light 10h 10m
Length of Day
9h 05m
Last Quarter, 38% of the Moon is Illuminated
Dec 7
Last Quarter
Dec 13
New
Dec 19
First Quarter
Dec 28
Full
Jan 4
Last Quarter

Hourly Weather History & Observations

Time (CST) Temp. Windchill Dew Point Humidity Pressure Visibility Wind Dir Wind Speed Gust Speed Precip Events Conditions
12:15 AM 32.0 °F 23.6 °F 24.8 °F 75% 29.99 in 10.0 mi NNW 10.4 mph - N/A   Overcast
12:35 AM 32.0 °F 25.6 °F 24.8 °F 75% 29.99 in 10.0 mi NNW 6.9 mph - N/A   Overcast
12:55 AM 32.0 °F 25.6 °F 24.8 °F 75% 29.98 in 10.0 mi NNW 6.9 mph - N/A   Overcast
1:15 AM 32.0 °F 26.4 °F 24.8 °F 75% 29.98 in 10.0 mi NNW 5.8 mph - N/A   Overcast
1:35 AM 32.0 °F 26.4 °F 26.6 °F 80% 29.99 in 10.0 mi NNW 5.8 mph - N/A   Overcast
1:55 AM 32.0 °F 23.6 °F 26.6 °F 80% 29.99 in 10.0 mi NNW 10.4 mph - N/A   Mostly Cloudy
2:15 AM 32.0 °F 24.2 °F 24.8 °F 75% 30.00 in 10.0 mi North 9.2 mph - N/A   Scattered Clouds
2:35 AM 32.0 °F 24.8 °F 24.8 °F 75% 30.00 in 10.0 mi North 8.1 mph - N/A   Clear
2:55 AM 32.0 °F 22.5 °F 24.8 °F 75% 29.99 in 10.0 mi North 12.7 mph - N/A   Scattered Clouds
3:15 AM 32.0 °F 24.2 °F 23.0 °F 69% 29.99 in 10.0 mi North 9.2 mph - N/A   Scattered Clouds
3:35 AM 30.2 °F 19.8 °F 23.0 °F 75% 29.99 in 10.0 mi North 13.8 mph - N/A   Scattered Clouds
3:55 AM 30.2 °F 21.9 °F 23.0 °F 75% 29.98 in 10.0 mi North 9.2 mph - N/A   Scattered Clouds
4:15 AM 30.2 °F 23.4 °F 23.0 °F 75% 29.98 in 10.0 mi North 6.9 mph - N/A   Scattered Clouds
4:35 AM 30.2 °F 21.3 °F 23.0 °F 75% 29.97 in 10.0 mi North 10.4 mph - N/A   Scattered Clouds
4:55 AM 30.2 °F 21.9 °F 23.0 °F 75% 29.97 in 10.0 mi North 9.2 mph - N/A   Mostly Cloudy
5:15 AM 30.2 °F 21.9 °F 23.0 °F 75% 29.97 in 10.0 mi North 9.2 mph - N/A   Mostly Cloudy
5:35 AM 30.2 °F 21.9 °F 23.0 °F 75% 29.97 in 10.0 mi North 9.2 mph - N/A   Mostly Cloudy
6:15 AM 28.4 °F 19.1 °F 23.0 °F 80% 29.97 in 10.0 mi North 10.4 mph - N/A   Scattered Clouds
6:35 AM 28.4 °F 21.2 °F 23.0 °F 80% 29.97 in 10.0 mi NNE 6.9 mph - N/A   Mostly Cloudy
6:55 AM 30.2 °F 24.3 °F 23.0 °F 75% 29.98 in 10.0 mi North 5.8 mph - N/A   Overcast
7:15 AM 30.2 °F 23.4 °F 23.0 °F 75% 29.97 in 10.0 mi NE 6.9 mph - N/A   Overcast
7:35 AM 28.4 °F 20.4 °F 23.0 °F 80% 29.97 in 10.0 mi NNE 8.1 mph - N/A   Overcast
7:55 AM 28.4 °F 21.2 °F 21.2 °F 74% 29.97 in 10.0 mi NNE 6.9 mph - N/A   Mostly Cloudy
8:15 AM 28.4 °F 22.2 °F 23.0 °F 80% 29.97 in 10.0 mi NNE 5.8 mph - N/A   Mostly Cloudy
8:35 AM 28.4 °F 22.2 °F 23.0 °F 80% 29.97 in 10.0 mi NNE 5.8 mph - N/A   Mostly Cloudy
8:55 AM 28.4 °F 22.2 °F 23.0 °F 80% 29.98 in 10.0 mi NNE 5.8 mph - N/A   Mostly Cloudy
9:15 AM 28.4 °F 22.2 °F 21.2 °F 74% 29.98 in 10.0 mi NE 5.8 mph - N/A   Overcast
9:35 AM 30.2 °F 23.4 °F 21.2 °F 69% 29.97 in 10.0 mi ENE 6.9 mph - N/A   Overcast
9:55 AM 32.0 °F 27.5 °F 23.0 °F 69% 29.96 in 10.0 mi ENE 4.6 mph - N/A   Overcast
10:15 AM 32.0 °F 27.5 °F 21.2 °F 64% 29.98 in 10.0 mi NE 4.6 mph - N/A   Overcast
10:35 AM 32.0 °F 25.6 °F 23.0 °F 69% 29.98 in 10.0 mi NNE 6.9 mph - N/A   Mostly Cloudy
10:55 AM 32.0 °F 24.8 °F 23.0 °F 69% 29.97 in 10.0 mi NNE 8.1 mph - N/A   Scattered Clouds
11:15 AM 32.0 °F 24.8 °F 23.0 °F 69% 29.97 in 10.0 mi NNE 8.1 mph - N/A   Mostly Cloudy
11:35 AM 33.8 °F 27.0 °F 23.0 °F 65% 29.96 in 10.0 mi NE 8.1 mph - N/A   Overcast
11:55 AM 33.8 °F 29.6 °F 21.2 °F 60% 29.96 in 10.0 mi NE 4.6 mph - N/A   Overcast
12:15 PM 33.8 °F 27.7 °F 21.2 °F 60% 29.95 in 10.0 mi NNE 6.9 mph - N/A   Overcast
12:35 PM 33.8 °F 26.4 °F 21.2 °F 60% 29.95 in 10.0 mi NE 9.2 mph - N/A   Overcast
12:55 PM 33.8 °F 25.8 °F 21.2 °F 60% 29.94 in 10.0 mi North 10.4 mph - N/A   Overcast
1:15 PM 33.8 °F 26.4 °F 21.2 °F 60% 29.94 in 10.0 mi North 9.2 mph - N/A   Overcast
1:35 PM 32.0 °F 23.0 °F 23.0 °F 69% 29.94 in 10.0 mi North 11.5 mph - N/A   Overcast
1:55 PM 32.0 °F 23.0 °F 23.0 °F 69% 29.94 in 10.0 mi North 11.5 mph - N/A   Overcast
2:15 PM 32.0 °F 24.2 °F 24.8 °F 75% 29.94 in 10.0 mi North 9.2 mph - N/A   Overcast
2:35 PM 32.0 °F 24.8 °F 24.8 °F 75% 29.95 in 10.0 mi NNE 8.1 mph - N/A   Overcast
2:55 PM 32.0 °F 24.8 °F 24.8 °F 75% 29.95 in 10.0 mi North 8.1 mph - N/A   Overcast
3:15 PM 32.0 °F 26.4 °F 24.8 °F 75% 29.96 in 10.0 mi North 5.8 mph - N/A   Overcast
3:35 PM 32.0 °F 25.6 °F 23.0 °F 69% 29.97 in 10.0 mi North 6.9 mph - N/A   Overcast
3:55 PM 32.0 °F 26.4 °F 23.0 °F 69% 29.96 in 10.0 mi NE 5.8 mph - N/A   Overcast
4:15 PM 32.0 °F 24.8 °F 23.0 °F 69% 29.96 in 10.0 mi NE 8.1 mph - N/A   Overcast
4:35 PM 32.0 °F 22.1 °F 23.0 °F 69% 29.95 in 10.0 mi NNE 13.8 mph - N/A   Overcast
4:55 PM 32.0 °F 26.4 °F 21.2 °F 64% 29.95 in 10.0 mi NE 5.8 mph - N/A   Overcast
5:15 PM 32.0 °F 24.8 °F 21.2 °F 64% 29.94 in 10.0 mi NE 8.1 mph - N/A   Overcast
5:35 PM 32.0 °F 26.4 °F 21.2 °F 64% 29.95 in 10.0 mi ENE 5.8 mph - N/A   Overcast
5:55 PM 32.0 °F 26.4 °F 21.2 °F 64% 29.94 in 10.0 mi East 5.8 mph - N/A   Overcast
6:15 PM 32.0 °F 26.4 °F 21.2 °F 64% 29.94 in 10.0 mi NE 5.8 mph - N/A   Overcast
6:35 PM 32.0 °F 24.8 °F 21.2 °F 64% 29.94 in 10.0 mi ENE 8.1 mph - N/A   Overcast
7:15 PM 32.0 °F 28.7 °F 21.2 °F 64% 29.95 in 10.0 mi NE 3.5 mph - N/A   Overcast
7:35 PM 32.0 °F 24.8 °F 21.2 °F 64% 29.96 in 10.0 mi NNE 8.1 mph - N/A   Overcast
7:55 PM 32.0 °F 23.0 °F 21.2 °F 64% 29.96 in 10.0 mi NE 11.5 mph - N/A   Overcast
8:35 PM 30.2 °F 21.9 °F 21.2 °F 69% 29.96 in 10.0 mi NNE 9.2 mph - N/A   Overcast
8:55 PM 30.2 °F 22.6 °F 21.2 °F 69% 29.96 in 10.0 mi NE 8.1 mph - N/A   Overcast
9:15 PM 30.2 °F 22.6 °F 23.0 °F 75% 29.96 in 10.0 mi NE 8.1 mph - N/A   Overcast
9:35 PM 30.2 °F 23.4 °F 23.0 °F 75% 29.96 in 10.0 mi NE 6.9 mph - N/A   Overcast
9:55 PM 30.2 °F 22.6 °F 23.0 °F 75% 29.96 in 10.0 mi NE 8.1 mph - N/A   Overcast
10:15 PM 30.2 °F 23.4 °F 24.8 °F 80% 29.97 in 10.0 mi NE 6.9 mph - N/A   Overcast
10:35 PM 30.2 °F 21.9 °F 24.8 °F 80% 29.97 in 10.0 mi NE 9.2 mph - N/A   Overcast
10:55 PM 30.2 °F 23.4 °F 26.6 °F 86% 29.97 in 10.0 mi NE 6.9 mph - N/A   Overcast
11:15 PM 30.2 °F 22.6 °F 26.6 °F 86% 29.97 in 10.0 mi NE 8.1 mph - N/A   Overcast
11:35 PM 30.2 °F 24.3 °F 26.6 °F 86% 29.97 in 10.0 mi NE 5.8 mph - N/A   Overcast
11:55 PM 30.2 °F 25.4 °F 26.6 °F 86% 29.98 in 10.0 mi NE 4.6 mph - N/A   Overcast